date,time,SUV Intensity [MED/Hr],UV Index,Daily total [MED],Since Last [MED]
05/06/2022,00:08:54,-0.001,0.0,0.0,0.0
05/06/2022,00:10:54,0.000,0.0,0.0,0.0
05/06/2022,00:12:53,0.000,0.0,0.0,0.0
05/06/2022,00:14:53,0.000,0.0,0.0,0.0
05/06/2022,00:16:53,0.001,0.0,0.0,0.0
05/06/2022,00:19:01,0.001,0.0,0.0,0.0
05/06/2022,00:20:55,0.001,0.0,0.0,0.0
05/06/2022,00:22:53,0.002,0.0,0.0,0.0
05/06/2022,00:24:53,0.001,0.0,0.0,0.0
05/06/2022,00:26:53,0.001,0.0,0.0,0.0
05/06/2022,00:29:01,0.001,0.0,0.0,0.0
05/06/2022,00:30:53,0.001,0.0,0.0,0.0
05/06/2022,00:32:53,0.001,0.0,0.0,0.0
05/06/2022,00:34:54,0.001,0.0,0.0,0.0
05/06/2022,00:36:54,0.001,0.0,0.0,0.0
05/06/2022,00:38:54,0.001,0.0,0.0,0.0
05/06/2022,00:40:54,-0.001,0.0,0.0,0.0
05/06/2022,00:42:54,0.001,0.0,0.0,0.0
05/06/2022,00:44:53,0.001,0.0,0.0,0.0
05/06/2022,00:47:02,-0.000,0.0,0.0,0.0
05/06/2022,00:48:53,0.001,0.0,0.0,0.0
05/06/2022,00:50:53,0.002,0.0,0.0,0.0
05/06/2022,00:52:53,0.001,0.0,0.0,0.0
05/06/2022,00:54:53,0.001,0.0,0.0,0.0
05/06/2022,00:57:02,0.001,0.0,0.0,0.0
05/06/2022,00:58:53,-0.000,0.0,0.0,0.0
05/06/2022,01:00:53,0.001,0.0,0.0,0.0
05/06/2022,01:02:54,0.001,0.0,0.0,0.0
05/06/2022,01:04:54,0.001,0.0,0.0,0.0
05/06/2022,01:06:53,0.001,0.0,0.0,0.0
05/06/2022,01:08:53,0.001,0.0,0.0,0.0
05/06/2022,01:10:53,0.002,0.0,0.0,0.0
05/06/2022,01:12:54,0.000,0.0,0.0,0.0
05/06/2022,01:14:53,0.001,0.0,0.0,0.0
05/06/2022,01:16:53,0.001,0.0,0.0,0.0
05/06/2022,01:18:54,0.001,0.0,0.0,0.0
05/06/2022,01:20:53,0.001,0.0,0.0,0.0
05/06/2022,01:22:53,0.001,0.0,0.0,0.0
05/06/2022,01:25:54,0.002,0.0,0.0,0.0
05/06/2022,01:27:53,0.002,0.0,0.0,0.0
05/06/2022,01:29:53,0.001,0.0,0.0,0.0
05/06/2022,01:32:02,0.001,0.0,0.0,0.0
05/06/2022,01:33:53,0.001,0.0,0.0,0.0
05/06/2022,01:36:02,0.001,0.0,0.0,0.0
05/06/2022,01:37:53,0.001,0.0,0.0,0.0
05/06/2022,01:39:54,0.001,0.0,0.0,0.0
05/06/2022,01:41:53,0.001,0.0,0.0,0.0
05/06/2022,01:43:54,0.001,0.0,0.0,0.0
05/06/2022,01:45:54,0.001,0.0,0.0,0.0
05/06/2022,01:47:53,0.001,0.0,0.0,0.0
05/06/2022,01:49:54,0.001,0.0,0.0,0.0
05/06/2022,01:52:02,0.001,0.0,0.0,0.0
05/06/2022,01:53:53,0.001,0.0,0.0,0.0
05/06/2022,01:55:54,0.001,0.0,0.0,0.0
05/06/2022,01:57:53,0.001,0.0,0.0,0.0
05/06/2022,01:59:53,0.001,0.0,0.0,0.0
05/06/2022,02:01:53,0.001,0.0,0.0,0.0
05/06/2022,02:03:54,0.001,0.0,0.0,0.0
05/06/2022,02:05:54,0.002,0.0,0.0,0.0
05/06/2022,02:07:54,0.001,0.0,0.0,0.0
05/06/2022,02:09:53,0.001,0.0,0.0,0.0
05/06/2022,02:11:53,0.001,0.0,0.0,0.0
05/06/2022,02:13:54,0.001,0.0,0.0,0.0
05/06/2022,02:15:54,0.001,0.0,0.0,0.0
05/06/2022,02:17:53,0.001,0.0,0.0,0.0
05/06/2022,02:19:54,0.001,0.0,0.0,0.0
05/06/2022,02:21:53,0.002,0.0,0.0,0.0
05/06/2022,02:23:54,0.001,0.0,0.0,0.0
05/06/2022,02:25:53,0.001,0.0,0.0,0.0
05/06/2022,02:27:53,0.001,0.0,0.0,0.0
05/06/2022,02:29:54,0.000,0.0,0.0,0.0
05/06/2022,02:31:54,0.001,0.0,0.0,0.0
05/06/2022,02:33:53,0.001,0.0,0.0,0.0
05/06/2022,02:35:54,0.001,0.0,0.0,0.0
05/06/2022,02:37:54,0.000,0.0,0.0,0.0
05/06/2022,02:39:39,0.001,0.0,0.0,0.0
05/06/2022,02:41:54,0.001,0.0,0.0,0.0
05/06/2022,02:43:53,0.001,0.0,0.0,0.0
05/06/2022,02:45:53,0.001,0.0,0.0,0.0
05/06/2022,02:47:53,0.001,0.0,0.0,0.0
05/06/2022,02:49:53,0.001,0.0,0.0,0.0
05/06/2022,02:51:54,0.001,0.0,0.0,0.0
05/06/2022,02:54:02,0.001,0.0,0.0,0.0
05/06/2022,02:55:53,0.000,0.0,0.0,0.0
05/06/2022,02:57:54,0.000,0.0,0.0,0.0
05/06/2022,02:59:53,0.001,0.0,0.0,0.0
05/06/2022,03:01:54,0.001,0.0,0.0,0.0
05/06/2022,03:03:54,0.001,0.0,0.0,0.0
05/06/2022,03:05:54,0.002,0.0,0.0,0.0
05/06/2022,03:07:54,0.001,0.0,0.0,0.0
05/06/2022,03:09:53,-0.000,0.0,0.0,0.0
05/06/2022,03:11:54,0.001,0.0,0.0,0.0
05/06/2022,03:13:54,0.001,0.0,0.0,0.0
05/06/2022,03:16:02,0.001,0.0,0.0,0.0
05/06/2022,03:17:53,0.002,0.0,0.0,0.0
05/06/2022,03:19:54,0.001,0.0,0.0,0.0
05/06/2022,03:21:54,0.001,0.0,0.0,0.0
05/06/2022,03:23:54,0.001,0.0,0.0,0.0
05/06/2022,03:25:54,0.001,0.0,0.0,0.0
05/06/2022,03:27:54,0.001,0.0,0.0,0.0
05/06/2022,03:29:53,0.001,0.0,0.0,0.0
05/06/2022,03:31:54,0.001,0.0,0.0,0.0
05/06/2022,03:33:55,0.001,0.0,0.0,0.0
05/06/2022,03:35:53,0.001,0.0,0.0,0.0
05/06/2022,03:37:53,0.001,0.0,0.0,0.0
05/06/2022,03:39:54,0.001,0.0,0.0,0.0
05/06/2022,03:41:54,0.002,0.0,0.0,0.0
05/06/2022,03:43:54,0.002,0.0,0.0,0.0
05/06/2022,03:45:54,0.001,0.0,0.0,0.0
05/06/2022,03:48:02,0.001,0.0,0.0,0.0
05/06/2022,03:49:54,0.002,0.0,0.0,0.0
05/06/2022,03:51:53,0.001,0.0,0.0,0.0
05/06/2022,03:53:53,0.002,0.0,0.0,0.0
05/06/2022,03:55:53,0.001,0.0,0.0,0.0
05/06/2022,03:58:27,0.001,0.0,0.0,0.0
05/06/2022,04:00:54,0.001,0.0,0.0,0.0
05/06/2022,04:02:54,0.002,0.0,0.0,0.0
05/06/2022,04:04:53,0.001,0.0,0.0,0.0
05/06/2022,04:07:05,0.001,0.0,0.0,0.0
05/06/2022,04:08:53,0.002,0.0,0.0,0.0
05/06/2022,04:10:53,0.002,0.0,0.0,0.0
05/06/2022,04:12:53,0.002,0.0,0.0,0.0
05/06/2022,04:14:54,0.001,0.0,0.0,0.0
05/06/2022,04:16:54,0.001,0.0,0.0,0.0
05/06/2022,04:18:53,0.001,0.0,0.0,0.0
05/06/2022,04:20:53,0.002,0.0,0.0,0.0
05/06/2022,04:23:02,0.002,0.0,0.0,0.0
05/06/2022,04:24:54,0.001,0.0,0.0,0.0
05/06/2022,04:26:54,0.002,0.0,0.0,0.0
05/06/2022,04:28:54,0.002,0.0,0.0,0.0
05/06/2022,04:30:54,0.001,0.0,0.0,0.0
05/06/2022,04:33:02,0.002,0.0,0.0,0.0
05/06/2022,04:34:54,0.002,0.0,0.0,0.0
05/06/2022,04:36:54,0.002,0.0,0.0,0.0
05/06/2022,04:38:53,0.002,0.0,0.0,0.0
05/06/2022,04:40:53,0.001,0.0,0.0,0.0
05/06/2022,04:43:02,0.002,0.0,0.0,0.0
05/06/2022,04:44:54,0.002,0.0,0.0,0.0
05/06/2022,04:46:54,0.002,0.0,0.0,0.0
05/06/2022,04:49:02,0.002,0.0,0.0,0.0
05/06/2022,04:50:53,0.002,0.0,0.0,0.0
05/06/2022,04:52:53,0.002,0.0,0.0,0.0
05/06/2022,04:54:54,0.002,0.0,0.0,0.0
05/06/2022,04:56:53,0.003,0.0,0.0,0.0
05/06/2022,04:58:53,0.003,0.0,0.0,0.0
05/06/2022,05:00:54,0.003,0.0,0.0,0.0
05/06/2022,05:02:53,0.003,0.0,0.0,0.0
05/06/2022,05:04:54,0.004,0.0,0.0,0.0
05/06/2022,05:06:53,0.004,0.0,0.0,0.0
05/06/2022,05:08:53,0.005,0.0,0.0,0.0
05/06/2022,05:10:54,0.005,0.0,0.0,0.0
05/06/2022,05:12:53,0.006,0.0,0.0,0.0
05/06/2022,05:14:54,0.007,0.0,0.0,0.0
05/06/2022,05:16:53,0.007,0.0,0.001,0.001
05/06/2022,05:18:54,0.007,0.0,0.001,0.0
05/06/2022,05:20:54,0.008,0.0,0.001,0.0
05/06/2022,05:22:55,0.009,0.0,0.001,0.0
05/06/2022,05:24:54,0.009,0.0,0.002,0.001
05/06/2022,05:26:53,0.009,0.0,0.002,0.0
05/06/2022,05:28:54,0.013,0.0,0.002,0.0
05/06/2022,05:31:02,0.014,0.0,0.003,0.001
05/06/2022,05:32:54,0.016,0.0,0.003,0.0
05/06/2022,05:34:53,0.018,0.0,0.004,0.001
05/06/2022,05:36:53,0.018,0.0,0.004,0.0
05/06/2022,05:38:53,0.016,0.0,0.005,0.001
05/06/2022,05:41:02,0.016,0.0,0.006,0.001
05/06/2022,05:42:54,0.016,0.0,0.006,0.0
05/06/2022,05:44:53,0.015,0.0,0.007,0.001
05/06/2022,05:46:54,0.016,0.0,0.007,0.0
05/06/2022,05:48:53,0.017,0.0,0.008,0.001
05/06/2022,05:50:54,0.017,0.0,0.008,0.0
05/06/2022,05:52:53,0.019,0.0,0.009,0.001
05/06/2022,05:54:54,0.024,0.0,0.01,0.001
05/06/2022,05:57:01,0.027,0.0,0.011,0.001
05/06/2022,05:58:54,0.028,0.0,0.011,0.0
05/06/2022,06:00:54,0.024,0.0,0.012,0.001
05/06/2022,06:02:55,0.024,0.0,0.013,0.001
05/06/2022,06:04:53,0.023,0.0,0.014,0.001
05/06/2022,06:06:45,0.022,0.0,0.015,0.001
05/06/2022,06:08:55,0.024,0.0,0.015,0.0
05/06/2022,06:10:54,0.028,0.0,0.016,0.001
05/06/2022,06:12:53,0.035,0.0,0.017,0.001
05/06/2022,06:14:54,0.048,0.0,0.019,0.002
05/06/2022,06:17:04,0.047,0.0,0.02,0.001
05/06/2022,06:18:53,0.054,0.0,0.022,0.002
05/06/2022,06:20:54,0.065,0.0,0.024,0.002
05/06/2022,06:22:54,0.064,0.0,0.026,0.002
05/06/2022,06:24:54,0.079,0.0,0.028,0.002
05/06/2022,06:26:54,0.082,0.0,0.031,0.003
05/06/2022,06:28:54,0.084,0.0,0.034,0.003
05/06/2022,06:30:54,0.099,0.0,0.037,0.003
05/06/2022,06:32:54,0.113,0.0,0.041,0.004
05/06/2022,06:34:53,0.116,0.0,0.044,0.003
05/06/2022,06:36:53,0.097,0.0,0.048,0.004
05/06/2022,06:38:53,0.096,0.0,0.051,0.003
05/06/2022,06:40:54,0.080,0.0,0.054,0.003
05/06/2022,06:42:54,0.085,0.0,0.057,0.003
05/06/2022,06:44:55,0.097,0.0,0.06,0.003
05/06/2022,06:46:54,0.092,0.0,0.063,0.003
05/06/2022,06:48:54,0.097,0.0,0.066,0.003
05/06/2022,06:50:53,0.094,0.0,0.07,0.004
05/06/2022,06:52:55,0.099,0.0,0.073,0.003
05/06/2022,06:55:02,0.096,0.0,0.076,0.003
05/06/2022,06:56:54,0.109,0.0,0.079,0.003
05/06/2022,06:58:54,0.107,0.0,0.083,0.004
05/06/2022,07:00:54,0.113,0.0,0.087,0.004
05/06/2022,07:02:54,0.115,0.0,0.091,0.004
05/06/2022,07:05:03,0.109,0.0,0.095,0.004
05/06/2022,07:06:53,0.120,0.0,0.098,0.003
05/06/2022,07:08:54,0.126,0.0,0.102,0.004
05/06/2022,07:10:54,0.112,0.0,0.106,0.004
05/06/2022,07:12:54,0.110,0.0,0.11,0.004
05/06/2022,07:15:03,0.109,0.0,0.114,0.004
05/06/2022,07:16:54,0.096,0.0,0.117,0.003
05/06/2022,07:18:54,0.103,0.0,0.12,0.003
05/06/2022,07:20:53,0.107,0.0,0.124,0.004
05/06/2022,07:22:45,0.133,0.0,0.127,0.003
05/06/2022,07:24:55,0.140,0.0,0.132,0.005
05/06/2022,07:26:54,0.144,0.0,0.137,0.005
05/06/2022,07:28:54,0.150,0.0,0.142,0.005
05/06/2022,07:30:54,0.142,0.0,0.147,0.005
05/06/2022,07:32:54,0.148,0.0,0.152,0.005
05/06/2022,07:34:54,0.155,0.0,0.157,0.005
05/06/2022,07:36:54,0.198,0.0,0.163,0.006
05/06/2022,07:38:53,0.192,0.0,0.169,0.006
05/06/2022,07:40:54,0.177,0.0,0.176,0.007
05/06/2022,07:42:54,0.170,0.0,0.181,0.005
05/06/2022,07:44:54,0.163,0.0,0.187,0.006
05/06/2022,07:46:54,0.157,0.0,0.192,0.005
05/06/2022,07:48:54,0.151,0.0,0.197,0.005
05/06/2022,07:50:54,0.139,0.0,0.202,0.005
05/06/2022,07:52:54,0.138,0.0,0.207,0.005
05/06/2022,07:54:54,0.147,0.0,0.212,0.005
05/06/2022,07:57:02,0.133,0.0,0.216,0.004
05/06/2022,07:58:54,0.129,0.0,0.22,0.004
05/06/2022,08:00:54,0.119,0.0,0.225,0.005
05/06/2022,08:02:54,0.125,0.0,0.229,0.004
05/06/2022,08:04:54,0.145,0.0,0.233,0.004
05/06/2022,08:06:55,0.164,0.0,0.238,0.005
05/06/2022,08:08:54,0.172,0.0,0.244,0.006
05/06/2022,08:10:54,0.171,0.0,0.25,0.006
05/06/2022,08:13:02,0.169,0.0,0.255,0.005
05/06/2022,08:14:54,0.180,0.0,0.261,0.006
05/06/2022,08:16:54,0.190,0.0,0.267,0.006
05/06/2022,08:18:54,0.231,1.0,0.274,0.007
05/06/2022,08:20:56,0.238,1.0,0.282,0.008
05/06/2022,08:23:02,0.241,1.0,0.29,0.008
05/06/2022,08:24:53,0.237,1.0,0.298,0.008
05/06/2022,08:26:54,0.261,1.0,0.306,0.008
05/06/2022,08:28:54,0.281,1.0,0.315,0.009
05/06/2022,08:30:54,0.280,1.0,0.324,0.009
05/06/2022,08:33:02,0.276,1.0,0.334,0.01
05/06/2022,08:34:54,0.252,1.0,0.343,0.009
05/06/2022,08:36:54,0.257,1.0,0.351,0.008
05/06/2022,08:38:54,0.267,1.0,0.36,0.009
05/06/2022,08:40:54,0.287,1.0,0.369,0.009
05/06/2022,08:42:54,0.289,1.0,0.379,0.01
05/06/2022,08:44:54,0.329,1.0,0.389,0.01
05/06/2022,08:46:54,0.321,1.0,0.399,0.01
05/06/2022,08:48:54,0.341,1.0,0.411,0.012
05/06/2022,08:50:54,0.356,1.0,0.422,0.011
05/06/2022,08:52:54,0.380,1.0,0.435,0.013
05/06/2022,08:54:54,0.386,1.0,0.447,0.012
05/06/2022,08:56:54,0.360,1.0,0.46,0.013
05/06/2022,08:58:54,0.316,1.0,0.471,0.011
05/06/2022,09:00:54,0.272,1.0,0.481,0.01
05/06/2022,09:02:54,0.284,1.0,0.49,0.009
05/06/2022,09:04:54,0.278,1.0,0.499,0.009
05/06/2022,09:06:54,0.298,1.0,0.509,0.01
05/06/2022,09:08:54,0.335,1.0,0.519,0.01
05/06/2022,09:11:02,0.349,1.0,0.532,0.013
05/06/2022,09:12:55,0.358,1.0,0.543,0.011
05/06/2022,09:14:54,0.376,1.0,0.555,0.012
05/06/2022,09:16:54,0.346,1.0,0.567,0.012
05/06/2022,09:18:58,0.360,1.0,0.579,0.012
05/06/2022,09:21:03,0.355,1.0,0.591,0.012
05/06/2022,09:22:54,0.362,1.0,0.603,0.012
05/06/2022,09:24:54,0.389,1.0,0.615,0.012
05/06/2022,09:27:01,0.450,1.0,0.63,0.015
05/06/2022,09:28:54,0.512,1.0,0.645,0.015
05/06/2022,09:31:03,0.434,1.0,0.662,0.017
05/06/2022,09:32:54,0.424,1.0,0.676,0.014
05/06/2022,09:34:54,0.443,1.0,0.689,0.013
05/06/2022,09:36:54,0.456,1.0,0.705,0.016
05/06/2022,09:38:55,0.489,1.0,0.72,0.015
05/06/2022,09:40:54,0.532,1.0,0.737,0.017
05/06/2022,09:42:54,0.479,1.0,0.754,0.017
05/06/2022,09:44:55,0.472,1.0,0.77,0.016
05/06/2022,09:47:03,0.438,1.0,0.786,0.016
05/06/2022,09:48:54,0.422,1.0,0.799,0.013
05/06/2022,09:50:54,0.423,1.0,0.813,0.014
05/06/2022,09:52:54,0.420,1.0,0.828,0.015
05/06/2022,09:54:54,0.451,1.0,0.842,0.014
05/06/2022,09:57:05,0.465,1.0,0.858,0.016
05/06/2022,09:58:54,0.446,1.0,0.873,0.015
05/06/2022,10:00:54,0.459,1.0,0.887,0.014
05/06/2022,10:02:54,0.449,1.0,0.903,0.016
05/06/2022,10:04:54,0.436,1.0,0.917,0.014
05/06/2022,10:06:54,0.466,1.0,0.932,0.015
05/06/2022,10:08:54,0.461,1.0,0.948,0.016
05/06/2022,10:11:01,0.541,1.0,0.965,0.017
05/06/2022,10:13:03,0.542,1.0,0.984,0.019
05/06/2022,10:14:54,0.527,1.0,1.0,0.016
05/06/2022,10:16:54,0.527,1.0,1.018,0.018
05/06/2022,10:18:54,0.516,1.0,1.036,0.018
05/06/2022,10:20:54,0.507,1.0,1.052,0.016
05/06/2022,10:23:02,0.500,1.0,1.071,0.019
05/06/2022,10:24:54,0.488,1.0,1.086,0.015
05/06/2022,10:26:55,0.484,1.0,1.102,0.016
05/06/2022,10:28:54,0.504,1.0,1.118,0.016
05/06/2022,10:30:54,0.499,1.0,1.135,0.017
05/06/2022,10:32:54,0.544,1.0,1.153,0.018
05/06/2022,10:35:03,0.566,1.0,1.172,0.019
05/06/2022,10:36:54,0.577,1.0,1.191,0.019
05/06/2022,10:38:54,0.518,1.0,1.208,0.017
05/06/2022,10:40:55,0.510,1.0,1.226,0.018
05/06/2022,10:42:54,0.492,1.0,1.242,0.016
05/06/2022,10:45:03,0.505,1.0,1.26,0.018
05/06/2022,10:46:55,0.520,1.0,1.276,0.016
05/06/2022,10:48:54,0.570,1.0,1.294,0.018
05/06/2022,10:50:54,0.657,2.0,1.314,0.02
05/06/2022,10:52:54,0.651,1.0,1.337,0.023
05/06/2022,10:54:54,0.550,1.0,1.357,0.02
05/06/2022,10:56:55,0.554,1.0,1.375,0.018
05/06/2022,10:58:54,0.581,1.0,1.394,0.019
05/06/2022,11:01:03,0.610,1.0,1.415,0.021
05/06/2022,11:02:54,0.682,2.0,1.435,0.02
05/06/2022,11:04:54,0.742,2.0,1.459,0.024
05/06/2022,11:06:55,0.679,2.0,1.483,0.024
05/06/2022,11:08:54,0.632,1.0,1.504,0.021
05/06/2022,11:10:54,0.727,2.0,1.527,0.023
05/06/2022,11:12:55,0.715,2.0,1.552,0.025
05/06/2022,11:14:54,0.744,2.0,1.575,0.023
05/06/2022,11:16:55,0.695,2.0,1.6,0.025
05/06/2022,11:18:54,0.664,2.0,1.623,0.023
05/06/2022,11:20:55,0.650,1.0,1.645,0.022
05/06/2022,11:22:54,0.626,1.0,1.666,0.021
05/06/2022,11:24:54,0.592,1.0,1.686,0.02
05/06/2022,11:26:55,0.556,1.0,1.705,0.019
05/06/2022,11:28:55,0.512,1.0,1.723,0.018
05/06/2022,11:30:54,0.542,1.0,1.74,0.017
05/06/2022,11:32:55,0.533,1.0,1.758,0.018
05/06/2022,11:34:54,0.521,1.0,1.776,0.018
05/06/2022,11:36:55,0.554,1.0,1.794,0.018
05/06/2022,11:38:54,0.574,1.0,1.813,0.019
05/06/2022,11:40:54,0.559,1.0,1.831,0.018
05/06/2022,11:42:54,0.551,1.0,1.85,0.019
05/06/2022,11:44:54,0.585,1.0,1.869,0.019
05/06/2022,11:46:55,0.644,1.0,1.889,0.02
05/06/2022,11:49:02,0.692,2.0,1.913,0.024
05/06/2022,11:50:55,0.732,2.0,1.935,0.022
05/06/2022,11:52:54,0.780,2.0,1.96,0.025
05/06/2022,11:54:54,0.680,2.0,1.985,0.025
05/06/2022,11:56:54,0.591,1.0,2.006,0.021
05/06/2022,11:59:02,0.599,1.0,2.026,0.02
05/06/2022,12:00:55,0.714,2.0,2.047,0.021
05/06/2022,12:02:55,0.649,1.0,2.07,0.023
05/06/2022,12:04:54,0.694,2.0,2.092,0.022
05/06/2022,12:06:55,0.704,2.0,2.116,0.024
05/06/2022,12:08:55,0.585,1.0,2.138,0.022
05/06/2022,12:10:54,0.469,1.0,2.155,0.017
05/06/2022,12:12:55,0.411,1.0,2.169,0.014
05/06/2022,12:14:55,0.398,1.0,2.183,0.014
05/06/2022,12:16:54,0.387,1.0,2.196,0.013
05/06/2022,12:18:54,0.412,1.0,2.209,0.013
05/06/2022,12:21:03,0.498,1.0,2.225,0.016
05/06/2022,12:22:54,0.559,1.0,2.242,0.017
05/06/2022,12:24:54,0.578,1.0,2.261,0.019
05/06/2022,12:26:54,0.580,1.0,2.28,0.019
05/06/2022,12:28:54,0.556,1.0,2.299,0.019
05/06/2022,12:31:03,0.581,1.0,2.319,0.02
05/06/2022,12:32:54,0.575,1.0,2.337,0.018
05/06/2022,12:34:54,0.686,2.0,2.358,0.021
05/06/2022,12:36:54,0.786,2.0,2.382,0.024
05/06/2022,12:38:54,0.769,2.0,2.408,0.026
05/06/2022,12:41:03,0.679,2.0,2.435,0.027
05/06/2022,12:42:54,0.619,1.0,2.455,0.02
05/06/2022,12:44:54,0.674,2.0,2.476,0.021
05/06/2022,12:46:54,0.732,2.0,2.499,0.023
05/06/2022,12:48:54,0.685,2.0,2.523,0.024
05/06/2022,12:50:54,0.710,2.0,2.547,0.024
05/06/2022,12:53:02,0.745,2.0,2.573,0.026
05/06/2022,12:54:55,0.789,2.0,2.597,0.024
05/06/2022,12:56:54,0.744,2.0,2.622,0.025
05/06/2022,12:58:55,0.630,1.0,2.645,0.023
05/06/2022,13:00:55,0.680,2.0,2.667,0.022
05/06/2022,13:02:54,0.691,2.0,2.69,0.023
05/06/2022,13:04:55,0.583,1.0,2.712,0.022
05/06/2022,13:06:55,0.433,1.0,2.728,0.016
05/06/2022,13:08:54,0.391,1.0,2.742,0.014
05/06/2022,13:10:55,0.428,1.0,2.755,0.013
05/06/2022,13:12:55,0.556,1.0,2.772,0.017
05/06/2022,13:14:54,0.651,1.0,2.792,0.02
05/06/2022,13:16:54,0.651,1.0,2.814,0.022
05/06/2022,13:19:03,0.517,1.0,2.835,0.021
05/06/2022,13:20:54,0.454,1.0,2.85,0.015
05/06/2022,13:23:11,0.398,1.0,2.866,0.016
05/06/2022,13:25:03,0.380,1.0,2.878,0.012
05/06/2022,13:26:55,0.409,1.0,2.89,0.012
05/06/2022,13:28:54,0.463,1.0,2.904,0.014
05/06/2022,13:30:54,0.512,1.0,2.921,0.017
05/06/2022,13:32:54,0.501,1.0,2.938,0.017
05/06/2022,13:34:55,0.486,1.0,2.954,0.016
05/06/2022,13:36:54,0.423,1.0,2.969,0.015
05/06/2022,13:38:54,0.366,1.0,2.982,0.013
05/06/2022,13:40:55,0.365,1.0,2.994,0.012
05/06/2022,13:42:54,0.412,1.0,3.007,0.013
05/06/2022,13:44:55,0.448,1.0,3.021,0.014
05/06/2022,13:46:55,0.504,1.0,3.037,0.016
05/06/2022,13:48:55,0.557,1.0,3.055,0.018
05/06/2022,13:50:55,0.530,1.0,3.073,0.018
05/06/2022,13:52:54,0.537,1.0,3.091,0.018
05/06/2022,13:54:55,0.557,1.0,3.109,0.018
05/06/2022,13:57:03,0.577,1.0,3.129,0.02
05/06/2022,13:58:55,0.557,1.0,3.147,0.018
05/06/2022,14:00:54,0.525,1.0,3.165,0.018
05/06/2022,14:02:54,0.510,1.0,3.182,0.017
05/06/2022,14:04:54,0.527,1.0,3.199,0.017
05/06/2022,14:07:03,0.571,1.0,3.219,0.02
05/06/2022,14:08:55,0.586,1.0,3.237,0.018
05/06/2022,14:10:55,0.543,1.0,3.256,0.019
05/06/2022,14:12:54,0.512,1.0,3.273,0.017
05/06/2022,14:14:54,0.535,1.0,3.291,0.018
05/06/2022,14:17:02,0.554,1.0,3.31,0.019
05/06/2022,14:18:54,0.571,1.0,3.328,0.018
05/06/2022,14:20:54,0.587,1.0,3.347,0.019
05/06/2022,14:22:55,0.606,1.0,3.367,0.02
05/06/2022,14:24:54,0.635,1.0,3.387,0.02
05/06/2022,14:26:54,0.649,1.0,3.409,0.022
05/06/2022,14:28:55,0.640,1.0,3.43,0.021
05/06/2022,14:30:55,0.594,1.0,3.451,0.021
05/06/2022,14:32:54,0.569,1.0,3.47,0.019
05/06/2022,14:34:55,0.574,1.0,3.489,0.019
05/06/2022,14:36:54,0.568,1.0,3.508,0.019
05/06/2022,14:38:55,0.544,1.0,3.527,0.019
05/06/2022,14:40:54,0.522,1.0,3.545,0.018
05/06/2022,14:42:55,0.522,1.0,3.562,0.017
05/06/2022,14:44:55,0.502,1.0,3.579,0.017
05/06/2022,14:46:55,0.542,1.0,3.597,0.018
05/06/2022,14:49:03,0.515,1.0,3.615,0.018
05/06/2022,14:50:54,0.489,1.0,3.631,0.016
05/06/2022,14:52:55,0.533,1.0,3.648,0.017
05/06/2022,14:54:54,0.536,1.0,3.666,0.018
05/06/2022,14:56:55,0.489,1.0,3.683,0.017
05/06/2022,14:59:03,0.464,1.0,3.7,0.017
05/06/2022,15:00:54,0.399,1.0,3.714,0.014
05/06/2022,15:02:54,0.361,1.0,3.726,0.012
05/06/2022,15:04:54,0.350,1.0,3.738,0.012
05/06/2022,15:06:54,0.324,1.0,3.749,0.011
05/06/2022,15:08:55,0.298,1.0,3.76,0.011
05/06/2022,15:10:55,0.294,1.0,3.769,0.009
05/06/2022,15:12:54,0.301,1.0,3.779,0.01
05/06/2022,15:14:54,0.321,1.0,3.79,0.011
05/06/2022,15:16:55,0.328,1.0,3.8,0.01
05/06/2022,15:18:54,0.331,1.0,3.812,0.012
05/06/2022,15:20:55,0.320,1.0,3.822,0.01
05/06/2022,15:22:55,0.289,1.0,3.833,0.011
05/06/2022,15:24:54,0.268,1.0,3.842,0.009
05/06/2022,15:26:55,0.262,1.0,3.851,0.009
05/06/2022,15:28:55,0.252,1.0,3.859,0.008
05/06/2022,15:30:55,0.256,1.0,3.868,0.009
05/06/2022,15:32:55,0.276,1.0,3.876,0.008
05/06/2022,15:34:55,0.291,1.0,3.886,0.01
05/06/2022,15:36:54,0.291,1.0,3.896,0.01
05/06/2022,15:38:55,0.287,1.0,3.905,0.009
05/06/2022,15:40:55,0.301,1.0,3.915,0.01
05/06/2022,15:42:54,0.326,1.0,3.926,0.011
05/06/2022,15:44:54,0.340,1.0,3.937,0.011
05/06/2022,15:46:54,0.326,1.0,3.948,0.011
05/06/2022,15:48:55,0.310,1.0,3.958,0.01
05/06/2022,15:50:55,0.310,1.0,3.969,0.011
05/06/2022,15:52:56,0.341,1.0,3.98,0.011
05/06/2022,15:54:54,0.375,1.0,3.992,0.012
05/06/2022,15:56:55,0.374,1.0,4.004,0.012
05/06/2022,15:58:55,0.340,1.0,4.016,0.012
05/06/2022,16:00:55,0.294,1.0,4.027,0.011
05/06/2022,16:02:54,0.255,1.0,4.036,0.009
05/06/2022,16:04:54,0.200,0.0,4.043,0.007
05/06/2022,16:06:55,0.161,0.0,4.049,0.006
05/06/2022,16:08:55,0.145,0.0,4.054,0.005
05/06/2022,16:10:55,0.148,0.0,4.059,0.005
05/06/2022,16:12:55,0.154,0.0,4.064,0.005
05/06/2022,16:14:55,0.156,0.0,4.069,0.005
05/06/2022,16:16:54,0.149,0.0,4.075,0.006
05/06/2022,16:19:03,0.145,0.0,4.08,0.005
05/06/2022,16:20:54,0.144,0.0,4.084,0.004
05/06/2022,16:22:55,0.143,0.0,4.089,0.005
05/06/2022,16:24:55,0.129,0.0,4.094,0.005
05/06/2022,16:26:54,0.117,0.0,4.098,0.004
05/06/2022,16:29:03,0.122,0.0,4.102,0.004
05/06/2022,16:30:54,0.129,0.0,4.106,0.004
05/06/2022,16:32:55,0.127,0.0,4.11,0.004
05/06/2022,16:34:55,0.116,0.0,4.114,0.004
05/06/2022,16:36:55,0.110,0.0,4.118,0.004
05/06/2022,16:39:03,0.109,0.0,4.122,0.004
05/06/2022,16:40:55,0.107,0.0,4.125,0.003
05/06/2022,16:42:54,0.109,0.0,4.129,0.004
05/06/2022,16:44:55,0.117,0.0,4.133,0.004
05/06/2022,16:46:55,0.128,0.0,4.137,0.004
05/06/2022,16:49:03,0.128,0.0,4.141,0.004
05/06/2022,16:50:57,0.115,0.0,4.145,0.004
05/06/2022,16:52:55,0.103,0.0,4.149,0.004
05/06/2022,16:54:55,0.097,0.0,4.152,0.003
05/06/2022,16:56:55,0.099,0.0,4.155,0.003
05/06/2022,16:58:55,0.096,0.0,4.158,0.003
05/06/2022,17:01:04,0.093,0.0,4.162,0.004
05/06/2022,17:02:54,0.090,0.0,4.165,0.003
05/06/2022,17:04:55,0.082,0.0,4.168,0.003
05/06/2022,17:06:54,0.076,0.0,4.17,0.002
05/06/2022,17:09:12,0.070,0.0,4.173,0.003
05/06/2022,17:10:54,0.062,0.0,4.175,0.002
05/06/2022,17:12:55,0.051,0.0,4.177,0.002
05/06/2022,17:14:55,0.045,0.0,4.178,0.001
05/06/2022,17:16:55,0.046,0.0,4.18,0.002
05/06/2022,17:18:55,0.047,0.0,4.181,0.001
05/06/2022,17:21:03,0.047,0.0,4.183,0.002
05/06/2022,17:22:55,0.044,0.0,4.185,0.002
05/06/2022,17:24:55,0.039,0.0,4.186,0.001
05/06/2022,17:26:55,0.035,0.0,4.187,0.001
05/06/2022,17:28:55,0.030,0.0,4.188,0.001
05/06/2022,17:30:55,0.028,0.0,4.189,0.001
05/06/2022,17:32:55,0.028,0.0,4.19,0.001
05/06/2022,17:34:55,0.028,0.0,4.191,0.001
05/06/2022,17:36:55,0.027,0.0,4.192,0.001
05/06/2022,17:38:55,0.027,0.0,4.193,0.001
05/06/2022,17:40:55,0.025,0.0,4.194,0.001
05/06/2022,17:42:55,0.023,0.0,4.195,0.001
05/06/2022,17:44:55,0.023,0.0,4.195,0.0
05/06/2022,17:46:55,0.023,0.0,4.196,0.001
05/06/2022,17:48:54,0.022,0.0,4.197,0.001
05/06/2022,17:50:55,0.020,0.0,4.198,0.001
05/06/2022,17:52:55,0.021,0.0,4.198,0.0
05/06/2022,17:55:04,0.019,0.0,4.199,0.001
05/06/2022,17:57:08,0.021,0.0,4.2,0.001
05/06/2022,17:59:03,0.022,0.0,4.2,0.0
05/06/2022,18:00:54,0.021,0.0,4.201,0.001
05/06/2022,18:02:55,0.020,0.0,4.202,0.001
05/06/2022,18:04:55,0.019,0.0,4.202,0.0
05/06/2022,18:06:55,0.017,0.0,4.203,0.001
05/06/2022,18:09:03,0.017,0.0,4.204,0.001
05/06/2022,18:10:54,0.018,0.0,4.204,0.0
05/06/2022,18:12:55,0.017,0.0,4.205,0.001
05/06/2022,18:14:55,0.014,0.0,4.205,0.0
05/06/2022,18:16:55,0.012,0.0,4.206,0.001
05/06/2022,18:18:55,0.011,0.0,4.206,0.0
05/06/2022,18:20:55,0.010,0.0,4.207,0.001
05/06/2022,18:22:55,0.010,0.0,4.207,0.0
05/06/2022,18:24:55,0.009,0.0,4.207,0.0
05/06/2022,18:26:55,0.007,0.0,4.207,0.0
05/06/2022,18:28:57,0.007,0.0,4.208,0.001
05/06/2022,18:30:55,0.007,0.0,4.208,0.0
05/06/2022,18:32:55,0.006,0.0,4.208,0.0
05/06/2022,18:34:47,0.006,0.0,4.208,0.0
05/06/2022,18:36:56,0.005,0.0,4.208,0.0
05/06/2022,18:38:55,0.005,0.0,4.208,0.0
05/06/2022,18:40:55,0.005,0.0,4.208,0.0
05/06/2022,18:42:55,0.005,0.0,4.208,0.0
05/06/2022,18:44:55,0.005,0.0,4.208,0.0
05/06/2022,18:46:55,0.005,0.0,4.208,0.0
05/06/2022,18:48:55,0.005,0.0,4.208,0.0
05/06/2022,18:50:55,0.005,0.0,4.208,0.0
05/06/2022,18:52:55,0.005,0.0,4.208,0.0
05/06/2022,18:54:55,0.004,0.0,4.208,0.0
05/06/2022,18:56:55,0.005,0.0,4.208,0.0
05/06/2022,18:58:55,0.005,0.0,4.208,0.0
05/06/2022,19:01:03,0.004,0.0,4.208,0.0
05/06/2022,19:02:55,0.004,0.0,4.208,0.0
05/06/2022,19:04:55,0.004,0.0,4.208,0.0
05/06/2022,19:06:55,0.005,0.0,4.208,0.0
05/06/2022,19:08:55,0.006,0.0,4.208,0.0
05/06/2022,19:10:55,0.005,0.0,4.208,0.0
05/06/2022,19:13:03,0.005,0.0,4.208,0.0
05/06/2022,19:14:55,0.005,0.0,4.208,0.0
05/06/2022,19:16:56,0.007,0.0,4.208,0.0
05/06/2022,19:18:55,0.006,0.0,4.209,0.001
05/06/2022,19:20:55,0.006,0.0,4.209,0.0
05/06/2022,19:22:55,0.006,0.0,4.209,0.0
05/06/2022,19:24:55,0.006,0.0,4.209,0.0
05/06/2022,19:26:55,0.006,0.0,4.209,0.0
05/06/2022,19:28:55,0.006,0.0,4.209,0.0
05/06/2022,19:30:55,0.006,0.0,4.209,0.0
05/06/2022,19:32:55,0.005,0.0,4.209,0.0
05/06/2022,19:34:55,0.006,0.0,4.209,0.0
05/06/2022,19:36:55,0.005,0.0,4.209,0.0
05/06/2022,19:38:55,0.004,0.0,4.209,0.0
05/06/2022,19:40:55,0.004,0.0,4.209,0.0
05/06/2022,19:42:55,0.005,0.0,4.209,0.0
05/06/2022,19:44:55,0.004,0.0,4.209,0.0